Track GLOBALSTAR M084 now! 10-day predictions GLOBALSTAR M084 is classified as:
1 38040U 11080A 22230.49461892 -.00000088 00000-0 87735-4 0 9998 2 38040 52.0020 315.4189 0000456 114.7428 0.1134 12.62267678492123